Location: Albany
(35.0170°S, 117.8920°E)
Time: 16:46:00
(UTC+08:00)

Transit 2A - Pass Details

Date: 25 January 2021
Orbit: 601 x 958 km, 66.7° (Epoch: 02 March)

Event Time Altitude Azimuth Distance (km) Brightness Sun altitude
Rises 22:47:13 0° 188° (S) 3,525 10.4 -31.8°
Reaches altitude 10° 22:51:52 10° 156° (SSE) 2,648 9.2 -32.2°
Maximum altitude 22:53:53 12° 137° (SE) 2,554 8.9 -32.4°
Drops below altitude 10° 22:55:55 10° 117° (ESE) 2,683 8.8 -32.5°
Enters shadow 22:56:05 10° 116° (ESE) 2,702 8.8 -32.5°
Sets 23:00:42 0° 86° (E) 3,643 - -32.9°
